Charleston, SC

11:54 AM EDT on June 28, 2017 (GMT -0400)
Charleston Executive

Weather History for KJZI - March, 2014

Change the Weather History Date:

Thursday, March 20, 2014

  Actual Average (KCHS) Record (KCHS)
Temperature  
Mean Temperature 58 °F -  
Max Temperature 73 °F 70 °F 88 °F (1982)
Min Temperature 44 °F 47 °F 30 °F (1939)
Degree Days  
Heating Degree Days 6    
Growing Degree Days 8 (Base 50)    
Moisture  
Dew Point 52 °F    
Average Humidity 82    
Maximum Humidity 100    
Minimum Humidity 47    
Precipitation  
Precipitation 0.00 in - - ()
Sea Level Pressure  
Sea Level Pressure 30.03 in    
Wind  
Wind Speed 3 mph (WSW)    
Max Wind Speed 15 mph    
Max Gust Speed 20 mph    
Visibility 7 miles    
Events Fog    
Averages and records for this station are not official NWS values.
T = Trace of Precipitation, MM = Missing Value Source: NWS Daily Summary

Daily Weather History Graph

Daily Weather History Graph

Search for Another Location

Airport or City:

Trip Planner

Search our weather history database for the weather conditions in past years. The results will help you decide how hot, cold, wet, or windy it might be!

Date:

Astronomy

Mar. 20, 2014 Rise Set
Actual Time 7:23 AM EDT 7:31 PM EDT
Civil Twilight 6:59 AM EDT 7:56 PM EDT
Nautical Twilight 6:30 AM EDT 8:24 PM EDT
Astronomical Twilight 6:01 AM EDT 8:53 PM EDT
Moon 11:35 PM EDT (3/20) 9:41 AM EDT (3/20)
Length of Visible Light 12h 56m
Length of Day
12h 07m
Waning Gibbous, 84% of the Moon is Illuminated
Mar 20
Waning Gibbous
Mar 23
Last Quarter
Mar 30
New
Apr 7
First Quarter
Apr 15
Full

Hourly Weather History & Observations

Time (EDT) Temp. Dew Point Humidity Pressure Visibility Wind Dir Wind Speed Gust Speed Precip Events Conditions
12:15 AM 46.4 °F 46.4 °F 100% 30.09 in 8.0 mi Calm Calm - 0.00 in   Clear
12:35 AM 44.6 °F 44.6 °F 100% 30.08 in 9.0 mi Calm Calm - 0.00 in   Clear
12:55 AM 46.4 °F 46.4 °F 100% 30.07 in 3.0 mi Calm Calm - 0.00 in   Clear
1:15 AM 48.2 °F 48.2 °F 100% 30.06 in 4.0 mi Calm Calm - 0.00 in   Clear
1:35 AM 48.2 °F 48.2 °F 100% 30.05 in 3.0 mi Calm Calm - 0.00 in   Clear
1:55 AM 50.0 °F 50.0 °F 100% 30.05 in 3.0 mi Calm Calm - 0.00 in   Clear
2:15 AM 48.2 °F 48.2 °F 100% 30.05 in 3.0 mi Calm Calm - 0.00 in   Clear
2:35 AM 48.2 °F 48.2 °F 100% 30.05 in 2.5 mi Calm Calm - 0.00 in   Clear
2:55 AM 48.2 °F 48.2 °F 100% 30.05 in 1.5 mi Calm Calm - 0.00 in   Clear
3:15 AM 48.2 °F 48.2 °F 100% 30.04 in 2.5 mi Calm Calm - 0.00 in   Clear
3:35 AM 48.2 °F 48.2 °F 100% 30.04 in 2.5 mi Calm Calm - 0.00 in   Clear
3:55 AM 46.4 °F 46.4 °F 100% 30.03 in 4.0 mi Calm Calm - 0.00 in   Clear
4:15 AM 48.2 °F 48.2 °F 100% 30.03 in 4.0 mi Calm Calm - 0.00 in   Clear
4:35 AM 48.2 °F 48.2 °F 100% 30.03 in 5.0 mi Calm Calm - 0.00 in   Clear
4:55 AM 46.4 °F 46.4 °F 100% 30.03 in 4.0 mi Calm Calm - 0.00 in   Clear
5:15 AM 46.4 °F 46.4 °F 100% 30.03 in 0.5 mi Calm Calm - 0.00 in Fog Fog
5:35 AM 46.4 °F 46.4 °F 100% 30.03 in 0.8 mi Calm Calm - 0.00 in   Mist
5:55 AM 46.4 °F 46.4 °F 100% 30.04 in 0.2 mi Calm Calm - 0.00 in Fog Fog
6:15 AM 46.4 °F 46.4 °F 100% 30.04 in 1.2 mi Calm Calm - 0.00 in   Clear
6:35 AM 44.6 °F 44.6 °F 100% 30.04 in 0.2 mi Calm Calm - 0.00 in Fog Fog
6:55 AM 46.4 °F 46.4 °F 100% 30.05 in 0.2 mi Calm Calm - 0.00 in Fog Fog
7:15 AM 46.4 °F 46.4 °F 100% 30.06 in 4.0 mi Calm Calm - 0.00 in   Clear
7:35 AM 46.4 °F 46.4 °F 100% 30.06 in 3.0 mi Calm Calm - 0.00 in   Clear
7:55 AM 46.4 °F 46.4 °F 100% 30.06 in 3.0 mi Calm Calm - 0.00 in   Clear
8:15 AM 48.2 °F 48.2 °F 100% 30.06 in 2.5 mi Calm Calm - 0.00 in   Clear
8:35 AM 51.8 °F 51.8 °F 100% 30.06 in 5.0 mi Calm Calm - 0.00 in   Clear
8:55 AM 53.6 °F 53.6 °F 100% 30.07 in 5.0 mi Calm Calm - 0.00 in   Clear
9:15 AM 53.6 °F 53.6 °F 100% 30.07 in 8.0 mi West 6.9 mph - 0.00 in   Clear
9:35 AM 55.4 °F 55.4 °F 100% 30.08 in 9.0 mi West 5.8 mph - 0.00 in   Clear
9:55 AM 57.2 °F 55.4 °F 94% 30.09 in 9.0 mi West 4.6 mph - 0.00 in   Clear
10:15 AM 59.0 °F 55.4 °F 88% 30.09 in 10.0 mi Calm Calm - 0.00 in   Clear
10:35 AM 60.8 °F 55.4 °F 82% 30.09 in 10.0 mi West 6.9 mph - 0.00 in   Clear
10:55 AM 62.6 °F 55.4 °F 77% 30.09 in 10.0 mi West 6.9 mph - 0.00 in   Partly Cloudy
11:15 AM 64.4 °F 55.4 °F 73% 30.08 in 10.0 mi Calm Calm - 0.00 in   Partly Cloudy
11:35 AM 66.2 °F 55.4 °F 68% 30.08 in 10.0 mi West 6.9 mph - 0.00 in   Clear
11:55 AM 66.2 °F 55.4 °F 68% 30.07 in 10.0 mi NW 9.2 mph - 0.00 in   Clear
12:15 PM 69.8 °F 53.6 °F 56% 30.07 in 10.0 mi West 5.8 mph - 0.00 in   Clear
12:35 PM 69.8 °F 53.6 °F 56% 30.07 in 10.0 mi NW 8.1 mph - 0.00 in   Clear
12:55 PM 71.6 °F 53.6 °F 53% 30.06 in 10.0 mi NW 6.9 mph - 0.00 in   Clear
1:15 PM 71.6 °F 51.8 °F 50% 30.05 in 10.0 mi NNW 10.4 mph - 0.00 in   Clear
1:35 PM 71.6 °F 51.8 °F 50% 30.04 in 10.0 mi NNW 9.2 mph - 0.00 in   Partly Cloudy
1:55 PM 71.6 °F 51.8 °F 50% 30.03 in 10.0 mi NNW 8.1 mph - 0.00 in   Partly Cloudy
2:15 PM 73.4 °F 51.8 °F 47% 30.02 in 10.0 mi East 3.5 mph - 0.00 in   Clear
2:35 PM 69.8 °F 57.2 °F 64% 30.00 in 10.0 mi South 9.2 mph - 0.00 in   Clear
2:55 PM 71.6 °F 57.2 °F 60% 29.99 in 10.0 mi North 5.8 mph 16.1 mph 0.00 in   Clear
3:15 PM 71.6 °F 57.2 °F 60% 29.98 in 10.0 mi SSW 9.2 mph - 0.00 in   Clear
3:35 PM 71.6 °F 57.2 °F 60% 29.98 in 10.0 mi SSW 15.0 mph - 0.00 in   Clear
3:55 PM 71.6 °F 55.4 °F 57% 29.97 in 10.0 mi SSW 12.7 mph - 0.00 in   Clear
4:15 PM 71.6 °F 55.4 °F 57% 29.97 in 10.0 mi SSW 12.7 mph 17.3 mph 0.00 in   Clear
4:35 PM 71.6 °F 55.4 °F 57% 29.97 in 10.0 mi SSW 12.7 mph - 0.00 in   Clear
4:55 PM 69.8 °F 55.4 °F 60% 29.96 in 10.0 mi SSW 15.0 mph - 0.00 in   Clear
5:15 PM 69.8 °F 55.4 °F 60% 29.96 in 10.0 mi SW 12.7 mph 19.6 mph 0.00 in   Clear
5:35 PM 69.8 °F 53.6 °F 56% 29.96 in 10.0 mi SW 15.0 mph 18.4 mph 0.00 in   Clear
5:55 PM 68.0 °F 53.6 °F 60% 29.96 in 10.0 mi SW 15.0 mph 19.6 mph 0.00 in   Clear
6:15 PM 66.2 °F 53.6 °F 64% 29.97 in 10.0 mi SSW 12.7 mph 16.1 mph 0.00 in   Clear
6:35 PM 66.2 °F 53.6 °F 64% 29.98 in 10.0 mi SW 10.4 mph - 0.00 in   Clear
6:55 PM 64.4 °F 51.8 °F 64% 29.98 in 10.0 mi SW 11.5 mph - 0.00 in   Clear
7:15 PM 62.6 °F 51.8 °F 68% 29.98 in 10.0 mi SW 9.2 mph - 0.00 in   Clear
7:35 PM 62.6 °F 51.8 °F 68% 29.99 in 10.0 mi SW 10.4 mph - 0.00 in   Clear
7:55 PM 60.8 °F 51.8 °F 72% 29.99 in 10.0 mi SW 8.1 mph - 0.00 in   Clear
8:15 PM 60.8 °F 51.8 °F 72% 30.00 in 10.0 mi SW 6.9 mph - 0.00 in   Clear
8:35 PM 60.8 °F 51.8 °F 72% 30.01 in 10.0 mi WSW 6.9 mph - 0.00 in   Clear
8:55 PM 59.0 °F 51.8 °F 77% 30.01 in 10.0 mi WSW 6.9 mph - 0.00 in   Clear
9:15 PM 59.0 °F 53.6 °F 82% 30.02 in 10.0 mi Calm Calm - 0.00 in   Clear
9:35 PM 59.0 °F 55.4 °F 88% 30.02 in 10.0 mi SW 6.9 mph - 0.00 in   Clear
9:55 PM 57.2 °F 55.4 °F 94% 30.03 in 10.0 mi SW 5.8 mph - 0.00 in   Clear
10:15 PM 57.2 °F 55.4 °F 94% 30.03 in 10.0 mi WSW 4.6 mph - 0.00 in   Clear
10:35 PM 57.2 °F 55.4 °F 94% 30.03 in 10.0 mi SW 4.6 mph - 0.00 in   Clear
10:55 PM 57.2 °F 55.4 °F 94% 30.03 in 10.0 mi WSW 5.8 mph - 0.00 in   Clear
11:15 PM 57.2 °F 55.4 °F 94% 30.04 in 10.0 mi Calm Calm - 0.00 in   Clear
11:35 PM 55.4 °F 55.4 °F 100% 30.04 in 10.0 mi Calm Calm - 0.00 in   Clear
11:55 PM 55.4 °F 53.6 °F 94% 30.04 in 10.0 mi Calm Calm - 0.00 in   Clear